SCP
0 0 0 0 0 0 0 0 0 0 0 0 0 0 0 0 0 0 0 0 0 0 0 0 0 0 0 0 0 0 0 0 0 0 1 3 3 3 3 2 2 2 2 2
0 0 0 0 0 0 0 0 0 0 0 0 0 0 0 0 0 0 0 0 0 0 0 0 0 0 0 0 0 0 0 0 0 0 1 2 4 4 4 3 2 2 2 2
0 0 0 0 0 0 0 0 0 0 0 0 0 0 0 0 0 0 0 0 0 0 0 0 0 0 0 0 0 0 0 0 0 0 0 2 3 4 4 4 3 2 2 1
0 0 0 0 0 0 0 0 0 0 0 0 0 0 0 0 0 0 0 0 0 0 0 0 0 0 0 0 0 0 0 0 0 0 0 1 2 3 4 4 3 3 2 1
0 0 0 0 0 0 0 0 0 0 0 0 0 0 0 0 0 0 0 0 0 0 0 0 0 0 0 0 0 0 0 0 0 0 0 0 1 2 3 3 3 2 1 1
0 0 0 0 0 0 0 0 0 0 0 0 0 0 0 0 0 0 0 0 0 0 0 0 0 0 0 0 0 0 0 0 0 0 0 0 1 1 2 2 2 1 1 0
0 0 0 0 0 0 0 0 0 0 0 0 0 0 0 0 0 0 0 0 0 0 0 0 0 0 0 0 0 0 0 0 0 0 0 0 0 1 2 2 2 1 0 0
0 0 0 0 0 0 0 0 0 0 0 0 0 0 0 0 0 0 0 0 0 0 0 0 0 0 0 0 0 0 0 0 0 0 0 0 0 1 1 1 1 1 0 0
0 0 0 0 0 0 0 0 0 0 0 0 0 0 0 0 0 0 0 0 0 0 0 0 0 0 0 0 0 0 0 0 0 0 0 0 0 0 1 1 1 1 0 0
0 0 0 0 0 0 0 0 0 0 0 0 0 0 0 0 0 0 0 0 0 0 0 0 0 0 0 0 0 0 0 0 0 0 0 0 0 0 0 0 1 0 0 0
0 0 0 0 0 0 0 0 0 0 0 0 0 0 0 0 0 0 0 0 0 0 0 0 0 0 0 0 0 0 0 0 0 0 0 0 0 0 0 0 0 0 0 0
0 0 0 0 0 0 0 0 0 0 0 0 0 0 0 0 0 0 0 0 0 0 0 0 0 0 0 0 0 0 0 0 0 0 0 0 0 0 0 0 0 0 0 0
0 0 0 0 0 0 0 0 0 0 0 0 0 0 0 0 0 0 0 0 0 0 0 0 0 0 0 0 0 0 0 0 0 0 0 0 0 0 0 0 0 0 0 0
0 0 0 0 0 0 0 0 0 0 0 0 0 0 0 0 0 0 0 0 0 0 0 0 0 0 0 0 0 0 0 0 0 0 0 0 0 0 0 0 0 0 0 0
0 0 0 0 0 0 0 0 0 0 0 0 0 0 0 0 0 0 0 0 0 0 0 0 0 0 0 0 0 0 0 0 0 0 0 0 0 0 0 0 0 0 0 0
0 0 0 0 0 0 0 0 0 0 0 0 0 0 0 0 0 0 0 0 0 0 0 0 0 0 0 0 0 0 0 0 0 0 0 0 0 0 0 0 0 0 0 0
0 0 0 0 0 0 0 0 0 0 0 0 0 0 0 0 0 0 0 0 0 0 0 0 0 0 0 0 0 0 0 0 0 0 0 0 0 0 0 0 0 0 0 0
0 0 0 0 0 0 0 0 0 0 0 0 0 0 0 0 0 0 0 0 0 0 0 0 0 0 0 0 0 0 0 0 0 0 0 0 0 0 0 0 0 0 0 0
0 0 0 0 0 0 0 0 0 0 0 0 0 0 0 0 0 0 0 0 0 0 0 0 0 0 0 0 0 0 0 0 0 0 0 0 0 0 0 0 0 0 0 0
0 0 0 0 0 0 0 0 0 0 0 0 0 0 0 0 0 0 0 0 0 0 0 0 0 0 0 0 0 0 0 0 0 0 0 0 0 0 0 0 0 0 0 0
0 0 0 0 0 0 0 0 0 0 0 0 0 0 0 0 0 0 0 0 0 0 0 0 0 0 0 0 0 0 0 0 0 0 0 0 0 0 0 0 0 0 0 0
0 0 0 0 0 0 0 0 0 0 0 0 0 0 0 0 0 0 0 0 0 0 0 0 0 0 0 0 0 0 0 0 0 0 0 0 0 0 0 0 0 0 0 0
0 0 0 0 0 0 0 0 0 0 0 0 0 0 0 0 0 0 0 0 0 0 0 0 0 0 0 0 0 0 0 0 0 0 0 0 0 0 0 0 0 0 0 0
0 0 0 0 0 0 0 0 0 0 0 0 0 0 0 0 0 0 0 0 0 0 0 0 0 0 0 0 0 0 0 0 0 0 0 0 0 0 0 0 0 0 0 0
0 0 0 0 0 0 0 0 0 0 0 0 0 0 0 0 0 0 0 0 0 0 0 0 0 0 0 0 0 0 0 0 0 0 0 0 0 0 0 0 0 0 0 0
0 0 0 0 0 0 0 0 0 0 0 0 0 0 0 0 0 0 0 0 0 0 0 0 0 0 0 0 0 0 0 0 0 0 0 0 0 0 0 0 0 0 0 0
Wind_Speed
0 2 3 3 3 4 3 1 1 1 2 2 4 5 5 4 5 5 5 4 4 3 3 3 3 3 3 2 1 1 1 2 2 2 2 2 2 2 2 2 3 3 3 3
1 4 4 4 3 3 2 2 2 1 2 3 4 7 6 6 6 5 4 4 4 4 3 3 3 3 2 2 1 1 0 1 1 1 1 1 2 2 2 2 3 3 3 3
4 3 3 3 3 4 3 2 3 3 5 5 4 6 5 4 5 4 4 3 2 4 4 4 3 3 3 2 1 0 0 0 1 1 1 2 2 2 2 2 2 3 3 3
3 3 3 3 3 4 2 4 3 3 3 3 1 4 4 5 6 6 5 4 3 3 3 3 3 3 3 2 1 1 1 1 0 0 1 2 2 2 2 2 2 3 3 3
2 3 3 3 4 5 2 4 4 4 3 4 3 3 6 4 5 6 6 5 4 4 4 3 3 3 3 3 2 1 1 1 1 1 1 2 2 2 2 2 2 2 3 3
1 1 2 3 3 3 3 4 5 3 1 4 5 4 5 3 5 5 5 5 4 4 4 3 3 3 2 2 2 2 2 2 1 1 1 2 3 3 3 3 2 2 2 2
0 2 2 1 3 1 3 2 2 1 2 5 2 3 6 2 2 3 3 3 3 3 3 3 2 2 2 3 3 3 3 3 2 2 2 3 3 3 3 3 3 2 2 2
1 1 2 1 2 2 3 2 1 2 3 3 2 5 4 3 4 4 3 3 2 2 2 2 3 3 3 3 3 3 3 3 2 2 3 3 3 2 2 3 2 2 2 2
2 1 2 1 1 3 3 1 1 2 4 4 6 4 2 4 5 4 3 3 2 2 1 1 2 2 2 3 3 3 3 3 3 3 3 3 2 2 3 3 2 2 2 2
3 3 2 2 2 3 3 3 1 1 2 5 6 4 3 4 4 4 3 3 2 2 1 1 1 2 2 2 2 3 3 4 3 3 3 2 3 3 3 2 2 2 2 2
3 2 2 2 4 4 3 3 3 3 3 2 5 4 1 3 3 3 2 1 1 1 1 1 1 1 2 2 2 3 3 3 3 3 3 3 3 3 2 2 3 2 2 2
1 2 4 4 1 1 2 4 3 3 4 3 4 7 1 4 3 3 1 0 1 1 1 1 2 2 2 2 3 3 3 3 4 3 3 3 3 3 3 3 3 2 2 2
2 2 3 2 1 1 3 5 5 4 2 4 5 7 2 3 2 1 1 1 1 1 1 2 2 2 2 3 3 3 3 4 4 3 3 3 3 3 3 3 3 3 3 2
2 4 6 6 3 2 5 6 7 6 5 6 10 10 7 4 3 2 2 3 3 2 2 2 2 3 3 3 3 4 4 3 4 3 4 4 4 4 4 3 3 3 3 3
3 5 7 11 11 10 11 11 10 13 12 10 10 11 11 8 6 5 4 4 4 4 3 3 3 3 3 3 3 3 4 4 4 4 4 5 4 4 3 3 3 3 3 3
4 5 6 9 10 10 14 15 14 14 15 17 16 18 10 6 4 4 5 4 4 4 4 3 3 3 4 4 4 4 4 4 4 4 5 5 4 4 4 4 4 4 4 3
4 4 4 6 5 7 12 12 13 10 9 9 13 12 6 5 5 4 5 5 5 5 4 4 4 4 4 4 4 4 4 4 4 5 5 5 5 5 5 4 4 4 4 4
5 4 4 5 5 9 7 1 3 6 9 10 9 7 5 5 5 5 4 3 4 4 4 4 4 4 4 4 4 4 4 4 4 5 5 5 5 5 5 4 5 5 4 4
6 5 4 3 6 10 6 3 3 3 6 6 7 6 4 3 4 4 2 1 3 4 4 4 4 4 4 4 4 4 4 4 5 5 5 5 5 5 5 5 6 5 4 4
2 4 5 5 6 8 3 3 3 1 5 2 2 2 2 2 3 4 2 2 4 4 4 4 4 4 4 5 3 4 5 5 6 6 5 5 5 5 6 6 5 4 4 4
4 5 8 9 8 10 4 4 4 2 3 0 0 2 2 3 5 4 5 4 4 5 5 5 5 5 5 4 3 5 5 6 6 5 5 5 5 5 5 5 4 4 4 4
9 7 8 7 9 11 3 5 5 4 2 2 2 3 3 5 5 6 6 6 6 6 5 5 5 5 5 4 4 6 7 6 4 4 5 5 5 5 4 4 4 4 4 4
8 9 6 9 10 5 4 5 4 2 3 4 4 4 5 6 7 7 6 6 6 6 6 5 5 6 5 4 5 7 7 5 4 4 5 5 4 4 4 5 5 4 4 4
6 5 6 8 8 7 6 6 4 4 4 5 5 6 5 7 7 7 7 6 6 6 6 5 5 6 6 5 5 6 5 4 4 5 5 4 5 5 4 4 5 5 5 5
6 4 6 10 9 9 8 5 5 5 5 6 6 6 6 7 8 8 7 7 6 6 5 5 5 6 7 6 6 5 5 4 5 5 5 4 5 5 5 5 5 6 6 6
9 10 11 11 7 7 6 5 6 6 7 7 7 7 6 7 8 8 7 6 6 6 5 6 6 7 7 6 7 6 5 5 5 5 5 4 4 4 4 4 3 6 7 8
Wind_Direction
341 53 44 16 347 329 322 322 304 61 86 284 258 252 242 214 210 219 213 200 186 179 163 141 137 135 130 129 131 102 50 26 18 8 348 335 339 326 327 335 330 322 316 315
67 54 19 342 331 320 319 312 332 28 351 289 273 270 249 211 209 215 210 202 185 168 154 142 146 143 149 161 166 172 123 35 20 14 345 303 303 293 291 305 316 315 316 323
52 41 349 327 344 342 339 13 14 339 315 259 269 277 223 196 188 198 199 193 169 172 174 167 164 163 166 172 169 210 194 15 351 355 336 327 316 302 308 323 319 323 325 330
59 37 354 347 4 350 352 24 355 315 315 287 242 287 256 198 195 198 194 190 191 185 174 169 167 168 174 170 151 205 221 216 268 328 305 307 302 295 299 307 303 311 320 325
52 29 355 358 5 346 339 326 294 281 289 293 239 239 273 196 199 200 190 185 184 180 173 170 167 167 163 154 156 193 230 227 216 230 269 291 294 292 306 319 315 312 319 323
113 70 5 357 343 314 301 288 259 241 265 269 224 211 268 218 200 187 176 172 174 172 164 159 150 145 156 156 163 192 225 233 217 219 252 263 278 291 305 308 303 306 310 316
111 157 127 313 299 260 299 328 347 319 234 249 195 216 249 213 117 138 149 159 157 153 156 162 166 174 184 180 187 202 225 233 223 229 246 250 257 264 270 286 288 294 300 304
318 254 143 168 329 322 290 318 355 287 289 308 260 237 245 134 112 110 115 119 124 142 167 171 182 195 204 202 200 206 225 232 224 232 250 249 252 251 256 266 278 278 274 275
337 288 116 113 319 306 297 289 21 310 289 275 254 227 197 139 134 141 147 145 163 185 191 184 192 201 201 206 210 212 223 233 231 229 245 246 249 256 259 264 267 272 280 284
329 294 235 151 220 234 281 319 296 230 282 286 280 250 204 164 160 155 160 165 182 177 177 196 214 207 199 208 218 217 218 226 230 227 234 241 241 247 253 258 266 272 281 290
300 281 269 213 217 204 191 227 237 259 260 262 290 286 56 117 127 135 129 125 133 140 164 217 228 213 213 212 216 224 225 226 230 228 230 238 242 243 246 249 252 260 273 279
334 297 266 241 154 36 243 237 212 226 258 239 262 273 93 107 108 102 100 119 116 142 180 215 218 215 226 227 229 230 227 227 231 225 223 230 234 236 238 242 247 249 260 265
337 266 285 250 181 177 238 237 240 256 284 250 245 260 150 133 135 99 355 313 294 239 223 233 231 228 235 235 235 233 228 228 230 223 223 230 228 228 236 240 237 239 248 256
292 255 235 248 266 250 246 237 227 222 223 242 236 255 263 264 297 308 295 284 282 276 256 243 243 241 241 238 234 234 233 227 227 225 223 227 228 226 229 234 233 233 235 238
227 256 259 268 277 274 264 255 236 227 225 237 253 261 273 291 298 299 291 284 284 286 280 264 256 255 251 245 240 234 232 229 227 226 228 230 229 225 221 225 230 233 235 237
222 263 282 273 259 259 263 254 244 241 238 245 260 270 273 279 293 301 302 299 292 291 287 282 277 274 266 256 250 241 234 228 222 228 231 228 226 223 220 223 225 228 232 236
219 242 274 273 285 293 266 243 227 223 222 227 245 254 278 290 292 296 297 293 292 296 296 288 280 272 268 263 254 245 238 231 225 232 233 227 223 224 224 220 219 224 227 230
241 238 257 281 300 253 248 149 192 227 242 232 244 265 281 287 294 287 280 280 297 309 304 292 282 277 269 266 263 252 238 230 230 233 234 229 223 224 222 218 223 227 224 223
226 227 245 258 268 276 262 204 184 215 262 235 237 254 275 309 314 290 276 303 297 293 292 284 275 274 270 265 255 249 245 235 232 234 234 229 223 223 221 221 224 226 224 225
236 227 235 241 252 255 265 129 99 94 270 230 205 243 276 318 294 273 321 328 304 298 292 288 283 278 273 266 249 246 248 241 239 237 236 230 223 223 223 223 224 224 222 226
179 206 222 236 251 263 263 143 126 198 249 51 254 265 260 241 246 283 311 305 295 289 287 283 278 273 268 267 254 252 252 248 246 243 237 229 223 224 222 219 219 220 218 219
186 193 204 208 229 251 183 143 198 238 313 319 298 283 274 270 283 293 295 292 293 289 282 277 274 270 266 257 248 255 255 254 251 240 235 230 226 225 217 214 218 213 209 216
206 204 203 207 225 248 183 213 235 262 284 287 289 286 279 279 281 286 286 285 284 282 279 272 268 271 268 256 243 254 259 252 244 237 234 231 227 225 217 212 214 212 209 215
239 227 247 260 260 265 258 255 260 263 269 280 284 280 275 275 279 282 281 281 282 280 278 274 272 272 273 264 254 252 257 246 235 237 237 228 223 227 221 216 211 211 213 217
253 241 252 260 268 279 273 270 280 286 283 285 281 274 272 274 277 275 274 273 273 275 273 268 265 267 270 269 264 258 252 242 239 240 237 232 225 224 221 218 216 215 218 214
233 240 245 255 259 267 279 291 294 287 280 278 279 279 272 266 271 273 271 268 268 271 272 272 268 267 270 271 268 262 248 237 237 242 235 228 226 223 220 220 232 228 224 227